When you browse on this site, cookies collect data to enhance your experience and personalize the content and advertising you see.
Visit our Privacy Policy to learn more. By continuing to use the site, you agree to this use of cookies and data.
  • In Romania
  • List of Countries
  • For 7 days
  • Water Temperature
  • Satellite Maps
  • Weather Map
  • Weather Widgets
  • user-avatar
    Login

    Hourly Weather Melbourne

    Today, 22 February, Friday

    Time Temperature Precipitation Wind Pressure Humidity
    00:00 +16°C° 0 mm 2 mps 765 mmHg 77%
    01:00 +16°C° 0 mm 2 mps 765 mmHg 78%
    02:00 +15°C° 0 mm 2 mps 765 mmHg 80%
    03:00 +15°C° 0 mm 2 mps 765 mmHg 81%
    04:00 +15°C° 0 mm 2 mps 765 mmHg 85%
    05:00 +15°C° 0 mm 2 mps 765 mmHg 84%
    06:00 +16°C° 0 mm 2 mps 765 mmHg 82%
    07:00 +16°C° 0 mm 2 mps 766 mmHg 81%
    08:00 +17°C° 0 mm 2 mps 766 mmHg 73%
    09:00 +19°C° 0 mm 3 mps 766 mmHg 65%
    10:00 +21°C° 0 mm 2 mps 766 mmHg 57%
    11:00 +22°C° 0 mm 3 mps 766 mmHg 53%
    12:00 +23°C° 0 mm 4 mps 765 mmHg 48%
    13:00 +26°C° 0 mm 4 mps 765 mmHg 44%
    14:00 +25°C° 0 mm 4 mps 765 mmHg 46%
    15:00 +25°C° 0 mm 5 mps 764 mmHg 47%
    16:00 +25°C° 0 mm 5 mps 764 mmHg 49%
    17:00 +22°C° 0 mm 5 mps 765 mmHg 54%
    18:00 +21°C° 0 mm 4 mps 765 mmHg 60%
    19:00 +19°C° 0 mm 4 mps 766 mmHg 66%
    20:00 +19°C° 0 mm 4 mps 766 mmHg 70%
    21:00 +18°C° 0 mm 3 mps 766 mmHg 74%
    22:00 +17°C° 0 mm 3 mps 766 mmHg 78%
    23:00 +17°C° 0 mm 3 mps 766 mmHg 80%

    Tomorrow, 23 February, Saturday

    Time Temperature Precipitation Wind Pressure Humidity
    00:00 +17°C° 0 mm 3 mps 766 mmHg 81%
    01:00 +16°C° 0 mm 3 mps 766 mmHg 83%
    02:00 +16°C° 0 mm 2 mps 766 mmHg 84%
    03:00 +16°C° 0 mm 2 mps 766 mmHg 84%
    04:00 +16°C° 0 mm 2 mps 766 mmHg 85%
    05:00 +16°C° 0 mm 2 mps 766 mmHg 85%
    06:00 +16°C° 0 mm 2 mps 766 mmHg 84%
    07:00 +16°C° 0 mm 2 mps 767 mmHg 84%
    08:00 +18°C° 0 mm 2 mps 767 mmHg 76%
    09:00 +19°C° 0 mm 2 mps 767 mmHg 69%
    10:00 +21°C° 0 mm 2 mps 767 mmHg 61%
    11:00 +24°C° 0 mm 3 mps 767 mmHg 53%
    12:00 +26°C° 0 mm 3 mps 766 mmHg 46%
    13:00 +28°C° 0 mm 3 mps 766 mmHg 39%
    14:00 +28°C° 0 mm 4 mps 766 mmHg 38%
    15:00 +29°C° 0 mm 4 mps 766 mmHg 38%
    16:00 +29°C° 0 mm 5 mps 765 mmHg 37%
    17:00 +28°C° 0 mm 5 mps 766 mmHg 40%
    18:00 +27°C° 0 mm 4 mps 766 mmHg 43%
    19:00 +26°C° 0 mm 4 mps 766 mmHg 46%
    20:00 +23°C° 0 mm 4 mps 766 mmHg 53%
    21:00 +22°C° 0 mm 4 mps 767 mmHg 59%
    22:00 +20°C° 0 mm 4 mps 767 mmHg 66%
    23:00 +19°C° 0 mm 4 mps 767 mmHg 69%

    Day after tomorrow, 24 February, Sunday

    Time Temperature Precipitation Wind Pressure Humidity
    00:00 +19°C° 0 mm 3 mps 767 mmHg 72%
    01:00 +18°C° 0 mm 3 mps 767 mmHg 75%
    02:00 +18°C° 0 mm 2 mps 767 mmHg 77%
    03:00 +17°C° 0 mm 2 mps 767 mmHg 78%
    04:00 +17°C° 0 mm 2 mps 767 mmHg 80%
    05:00 +17°C° 0 mm 2 mps 767 mmHg 77%
    06:00 +17°C° 0 mm 2 mps 768 mmHg 75%
    07:00 +18°C° 0 mm 2 mps 768 mmHg 73%
    08:00 +21°C° 0 mm 2 mps 768 mmHg 63%
    09:00 +24°C° 0 mm 2 mps 768 mmHg 53%
    10:00 +27°C° 0 mm 2 mps 768 mmHg 43%
    11:00 +29°C° 0 mm 2 mps 768 mmHg 38%
    12:00 +31°C° 0 mm 2 mps 767 mmHg 33%
    13:00 +33°C° 0 mm 1 mps 767 mmHg 28%
    14:00 +35°C° 0 mm 2 mps 766 mmHg 27%
    15:00 +35°C° 0 mm 2 mps 766 mmHg 26%
    16:00 +36°C° 0 mm 2 mps 765 mmHg 24%
    17:00 +34°C° 0 mm 2 mps 765 mmHg 26%
    18:00 +33°C° 0 mm 3 mps 765 mmHg 29%
    19:00 +30°C° 0 mm 4 mps 766 mmHg 31%
    20:00 +29°C° 0 mm 3 mps 766 mmHg 35%
    21:00 +27°C° 0 mm 3 mps 766 mmHg 39%
    22:00 +25°C° 0 mm 2 mps 767 mmHg 43%
    23:00 +25°C° 0 mm 2 mps 766 mmHg 44%

    25 February, Monday

    Time Temperature Precipitation Wind Pressure Humidity
    00:00 +25°C° 0 mm 2 mps 766 mmHg 45%
    01:00 +24°C° 0 mm 2 mps 766 mmHg 46%
    02:00 +24°C° 0 mm 3 mps 766 mmHg 45%
    03:00 +23°C° 0 mm 4 mps 766 mmHg 44%
    04:00 +23°C° 0 mm 4 mps 766 mmHg 44%
    05:00 +23°C° 0 mm 5 mps 767 mmHg 43%
    06:00 +22°C° 0 mm 5 mps 767 mmHg 42%
    07:00 +22°C° 0 mm 6 mps 767 mmHg 40%
    08:00 +24°C° 0 mm 6 mps 768 mmHg 37%
    09:00 +27°C° 0 mm 6 mps 768 mmHg 34%
    10:00 +28°C° 0 mm 6 mps 768 mmHg 31%
    11:00 +30°C° 0 mm 5 mps 767 mmHg 28%
    12:00 +33°C° 0 mm 4 mps 767 mmHg 25%
    13:00 +35°C° 0 mm 3 mps 766 mmHg 22%
    14:00 +36°C° 0 mm 3 mps 765 mmHg 21%
    15:00 +37°C° 0 mm 2 mps 765 mmHg 20%
    16:00 +36°C° 0 mm 1 mps 764 mmHg 19%
    17:00 +35°C° 0 mm 1 mps 764 mmHg 21%
    18:00 +34°C° 0 mm 2 mps 764 mmHg 23%
    19:00 +32°C° 0 mm 2 mps 765 mmHg 26%
    20:00 +31°C° 0 mm 2 mps 765 mmHg 28%
    21:00 +29°C° 0 mm 2 mps 765 mmHg 30%
    22:00 +28°C° 0 mm 3 mps 765 mmHg 31%
    23:00 +28°C° 0 mm 2 mps 765 mmHg 32%

    26 February, Tuesday

    Time Temperature Precipitation Wind Pressure Humidity
    00:00 +27°C° 0 mm 2 mps 764 mmHg 33%
    01:00 +26°C° 0 mm 2 mps 764 mmHg 34%
    02:00 +26°C° 0 mm 2 mps 764 mmHg 34%
    03:00 +26°C° 0 mm 2 mps 763 mmHg 35%
    04:00 +25°C° 0 mm 2 mps 763 mmHg 36%
    05:00 +25°C° 0 mm 2 mps 763 mmHg 36%
    06:00 +25°C° 0 mm 3 mps 764 mmHg 36%
    07:00 +25°C° 0 mm 3 mps 764 mmHg 36%
    08:00 +28°C° 0 mm 3 mps 764 mmHg 32%
    09:00 +30°C° 0 mm 3 mps 764 mmHg 28%
    10:00 +34°C° 0 mm 2 mps 765 mmHg 24%
    11:00 +35°C° 0 mm 2 mps 764 mmHg 21%
    12:00 +37°C° 0 mm 2 mps 763 mmHg 19%
    13:00 +38°C° 0 mm 2 mps 763 mmHg 17%
    14:00 +37°C° 0 mm 3 mps 763 mmHg 20%
    15:00 +36°C° 0 mm 5 mps 762 mmHg 24%
    16:00 +35°C° 0 mm 6 mps 762 mmHg 28%
    17:00 +30°C° 0 mm 6 mps 762 mmHg 39%
    18:00 +27°C° 0 mm 5 mps 763 mmHg 51%
    19:00 +23°C° 0 mm 4 mps 763 mmHg 62%
    20:00 +22°C° 0 mm 4 mps 764 mmHg 65%
    21:00 +21°C° 0 mm 3 mps 764 mmHg 68%
    22:00 +20°C° 0 mm 3 mps 765 mmHg 71%
    23:00 +20°C° 0 mm 2 mps 764 mmHg 71%

    27 February, Wednesday

    Time Temperature Precipitation Wind Pressure Humidity
    00:00 +19°C° 0 mm 2 mps 764 mmHg 70%
    01:00 +19°C° 0 mm 2 mps 764 mmHg 69%
    02:00 +19°C° 0 mm 2 mps 764 mmHg 70%
    03:00 +18°C° 0 mm 2 mps 764 mmHg 71%
    04:00 +19°C° 0 mm 1 mps 764 mmHg 73%
    05:00 +19°C° 0 mm 1 mps 764 mmHg 73%
    06:00 +20°C° 0 mm 1 mps 765 mmHg 73%
    07:00 +20°C° 0 mm 1 mps 765 mmHg 74%
    08:00 +23°C° 0 mm 1 mps 765 mmHg 64%
    09:00 +26°C° 0 mm 1 mps 765 mmHg 54%
    10:00 +29°C° 0 mm 1 mps 765 mmHg 43%
    11:00 +31°C° 0 mm 1 mps 764 mmHg 37%
    12:00 +34°C° 0 mm 1 mps 764 mmHg 30%
    13:00 +36°C° 0 mm 1 mps 763 mmHg 24%
    14:00 +37°C° 0 mm 1 mps 763 mmHg 22%
    15:00 +38°C° 0 mm 2 mps 762 mmHg 21%
    16:00 +39°C° 0 mm 2 mps 762 mmHg 20%
    17:00 +37°C° 0 mm 3 mps 762 mmHg 25%
    18:00 +35°C° 0 mm 3 mps 762 mmHg 29%
    19:00 +33°C° 0 mm 3 mps 762 mmHg 34%
    20:00 +31°C° 0 mm 3 mps 762 mmHg 36%
    21:00 +30°C° 0 mm 3 mps 762 mmHg 37%
    22:00 +29°C° 0 mm 3 mps 763 mmHg 38%
    23:00 +30°C° 0 mm 3 mps 762 mmHg 36%
    Show more